Regional Weather Roundup
Issued by NWS

Home | Current Version | Previous Version | Graphics & Text | Print | Product List | Glossary On
Versions: 1 2 3 4 5 6 7 8 9 10 11 12 13 14 15 16 17 18 19 20 21 22 23 24 25 26 27 28 29 30 31 32 33 34 35 36 37 38 39 40 41 42 43 44 45 46 47 48 49 50
629
ASUS44 KJAN 300603
RWRMS

MISSISSIPPI HOURLY WEATHER ROUNDUP
NATIONAL WEATHER SERVICE JACKSON MS
100 AM CDT TUE SEP 30 2014

NOTE: "FAIR: INDICATES FEW OR NO CLOUDS BELOW 12,000 FEET WITH NO
SIGNIFICANT WEATHER AND/OR OBSTRUCTIONS TO VISIBILITY.

MSZ001>002-007>008-010>013-018>021-025>028-034>036-300700-
NORTHWEST MISSISSIPPI

CITY           SKY/WX    TMP DP  RH WIND       PRES   REMARKS
CLARKSDALE     FAIR      64  63  94 N3        29.93F
CLEVELAND      FAIR      65  60  85 CALM      29.91F
GREENWOOD      CLEAR     63  61  93 CALM      29.91F
6HR MIN TEMP:  62; 6HR MAX TEMP:  75;

GREENVILLE     CLEAR     65  58  78 CALM      29.90F
6HR MIN TEMP:  65; 6HR MAX TEMP:  81;

GRENADA        FAIR      61  61 100 CALM      29.92F
OLIVE BRANCH   CLEAR     66  64  94 CALM      29.94S
OXFORD         FAIR      63  61  94 CALM      29.95S
TUNICA         CLEAR     61  59  94 CALM      29.93F FOG
$$

MSZ003>006-009-014>017-022>024-029>033-037>039-300700-
NORTHEAST MISSISSIPPI

CITY           SKY/WX    TMP DP  RH WIND       PRES   REMARKS
COLUMBUS AFB   CLEAR     65  63  93 NE2       29.91F
6HR MIN TEMP:  64; 6HR MAX TEMP:  77;

CORINTH          N/A     61  59  94 NW6       29.94S FOG
GOLDN TRIANGLE CLEAR     68  61  77 CALM      29.91S
STARKVILLE     FAIR      63  61  94 CALM      29.91F
TUPELO         CLEAR     64  60  87 NE6       29.92F
6HR MIN TEMP:  64; 6HR MAX TEMP:  78;

$$

MSZ040-058-300700-
CENTRAL MISSISSIPPI

CITY           SKY/WX    TMP DP  RH WIND       PRES   REMARKS
JACKSON INTL   CLEAR     69  66  90 CALM      29.90F
6HR MIN TEMP:  66; 6HR MAX TEMP:  81;

JACKSON HAWKNS CLEAR     71  66  84 CALM      29.91F
6HR MIN TEMP:  71; 6HR MAX TEMP:  82;

MERIDIAN KEY   CLEAR     66  65  96 CALM      29.90F
6HR MIN TEMP:  66; 6HR MAX TEMP:  76; 6HR PCP: TRACE;

MERIDIAN NAS   CLEAR     68  65  90 CALM      29.91F
6HR MIN TEMP:  67; 6HR MAX TEMP:  81;

RAYMOND        HAZE      66  63  88 CALM      29.91S VSB 1/4
VICKSBURG      CLEAR     67  65  93 CALM      29.90F
6HR MIN TEMP:  66; 6HR MAX TEMP:  78;

$$

MSZ059>079-300700-
SOUTH MISSISSIPPI

CITY           SKY/WX    TMP DP  RH WIND       PRES   REMARKS
BROOKHAVEN     FAIR      66  66 100 CALM      29.91F
COLUMBIA       FAIR      70  68  94 CALM      29.87F
HATTIESBURG    CLEAR     72  71  97 CALM      29.89F
6HR MIN TEMP:  72; 6HR MAX TEMP:  80;

MCCOMB         CLEAR     73  67  81 N5        29.89F
6HR MIN TEMP:  73; 6HR MAX TEMP:  80;

NATCHEZ        CLEAR     72  70  94 CALM      29.90S
6HR MIN TEMP:  72; 6HR MAX TEMP:  79;

PINE BELT      CLEAR    N/A N/A N/A N3        29.89F
$$

MSZ080>082-300700-
COASTAL MISSISSIPPI

CITY           SKY/WX    TMP DP  RH WIND       PRES   REMARKS
BILOXI         CLEAR     74  74  99 NE5       29.86F
6HR MIN TEMP:  74; 6HR MAX TEMP:  80;

PASCAGOULA     CLEAR     70  69  97 CALM      29.87S
6HR MIN TEMP:  70; 6HR MAX TEMP:  78;

GULFPORT       CLEAR     75  71  87 NE6       29.86F
6HR MIN TEMP:  75; 6HR MAX TEMP:  80;

$$



USA.gov is the U.S. government's official web portal to all federal, state and local government web resources and services.